Temp
72 62 60 64 65 66 64 61 60 65 73 68 64 65 69 74 73 70 70 72 70 72 74 75 75 75 76 77 76 74 76 80 79 78 76 70 67 67 67 67 69 67 65 65
66 59 67 70 69 65 63 60 60 66 71 66 63 62 68 72 70 68 67 66 67 68 70 71 72 72 72 72 72 74 74 74 76 75 77 78 73 68 67 65 67 67 67 65
62 68 71 68 65 63 63 60 60 58 63 65 62 59 63 67 68 68 67 66 66 65 66 67 68 69 70 69 70 71 72 73 73 74 73 70 69 66 63 66 68 67 67 66
65 71 67 64 63 65 55 65 62 59 55 47 62 44 57 63 62 63 63 62 63 64 66 66 66 66 68 68 68 69 71 72 74 72 70 69 71 68 69 67 67 64 66 66
62 65 62 59 62 65 58 64 60 58 54 53 55 48 57 63 57 59 61 63 63 63 63 63 64 66 68 68 65 67 69 68 68 69 69 67 69 71 68 68 64 66 66 66
64 72 68 63 66 66 66 61 59 58 54 43 54 53 54 56 56 58 61 62 63 62 61 62 64 66 66 67 63 63 66 65 66 65 65 67 67 69 68 65 65 64 64 65
62 65 66 67 59 65 60 52 42 42 40 42 57 51 52 57 59 58 57 59 61 62 60 60 61 62 63 63 64 64 64 63 67 66 63 65 67 68 69 69 67 62 63 63
51 51 61 65 59 53 53 51 42 34 39 42 54 43 52 60 60 60 60 59 59 59 58 59 59 60 62 63 64 64 62 62 66 67 63 64 67 67 68 69 68 66 64 64
48 52 64 64 62 59 54 47 52 43 47 40 46 54 59 58 56 56 56 58 57 58 57 58 59 60 60 63 63 65 63 63 64 66 67 64 66 67 65 67 69 68 67 66
53 41 58 60 61 61 55 57 42 43 32 31 42 43 44 47 49 53 54 55 57 59 59 60 61 61 62 64 64 65 62 62 64 65 67 66 65 66 66 67 67 67 66 65
53 47 50 55 53 49 49 47 48 46 42 31 30 37 51 49 50 51 54 56 56 55 56 58 59 60 62 63 63 62 63 62 61 62 64 64 64 64 66 66 63 66 67 66
52 44 38 46 56 57 52 48 48 34 33 35 30 32 54 52 53 55 55 57 56 56 56 58 58 59 60 60 60 61 62 63 61 59 60 62 63 63 64 63 63 63 65 67
48 43 33 42 46 52 48 50 49 45 38 31 26 31 53 54 53 55 55 54 55 56 56 57 58 58 56 58 59 61 61 61 61 59 57 59 61 61 62 63 63 65 66 68
49 42 38 31 37 44 40 44 46 42 31 32 33 37 45 49 50 53 52 53 53 54 55 56 56 56 56 58 59 60 60 60 60 61 59 54 57 58 59 61 62 64 67 68
47 37 42 44 44 43 41 41 42 39 39 32 36 38 44 49 50 51 53 53 52 53 54 56 54 55 56 57 57 59 59 59 60 60 60 54 54 57 58 57 60 63 65 67
48 35 40 35 42 42 39 42 42 42 43 42 43 41 51 52 53 52 50 51 50 51 52 55 55 56 56 57 56 58 58 58 60 59 59 58 53 56 55 55 54 59 61 63
42 37 34 27 40 38 30 41 44 44 46 44 35 42 49 46 46 47 47 50 50 50 52 53 54 55 56 56 57 56 58 59 58 58 59 59 58 55 56 55 52 52 55 61
41 39 35 28 33 20 41 49 48 43 45 46 45 45 44 44 46 49 51 50 51 51 52 53 54 55 55 56 56 57 58 57 56 57 57 59 56 55 56 54 50 50 50 59
47 39 30 25 27 34 40 46 43 40 38 46 43 45 46 48 47 45 52 52 50 51 53 54 55 55 55 56 56 55 55 55 54 55 57 56 55 54 55 53 49 49 49 54
48 45 35 31 21 18 39 47 52 46 29 46 46 44 44 44 32 38 48 50 49 52 54 53 54 55 54 55 55 53 52 53 53 55 54 55 54 53 52 53 50 49 50 50
37 36 30 30 27 33 46 48 50 28 31 46 47 45 43 38 40 45 49 48 50 52 52 54 53 52 53 55 54 51 51 51 53 55 54 53 52 51 52 53 52 49 49 49
32 29 29 31 26 23 49 47 36 43 47 48 45 44 42 43 44 46 47 47 48 48 49 52 51 51 53 54 53 50 49 52 53 53 53 51 50 52 54 52 49 50 48 48
31 39 32 33 32 47 50 48 50 50 46 45 44 45 45 44 44 45 45 46 47 47 48 51 51 50 52 52 52 48 50 52 52 51 50 49 49 50 52 53 47 49 48 47
44 47 37 37 42 45 48 51 52 50 46 46 46 46 45 42 43 44 45 45 46 48 47 50 49 48 48 50 51 49 50 52 50 48 47 48 47 48 51 54 52 49 48 47
42 43 39 38 43 46 48 49 47 45 46 46 46 46 44 44 43 44 44 45 46 47 47 48 47 46 47 47 48 48 49 48 48 47 46 45 46 46 49 51 50 49 49 50
43 40 36 34 45 43 43 47 47 44 44 44 44 44 45 45 43 44 43 44 44 44 45 45 45 45 45 46 46 46 47 47 46 46 44 44 43 43 46 47 47 51 50 51
MSLP
1012.13 1012.45 1011.95 1011.88 1011.86 1011.87 1011.63 1011.23 1010.49 1009.77 1009.28 1008.91 1008.84 1008.42 1007.43 1006.81 1006.89 1006.93 1007.38 1008.04 1008.95 1009.10 1009.53 1009.36 1009.53 1009.31 1008.84 1008.83 1008.66 1008.65 1008.51 1007.58 1007.71 1008.25 1008.76 1009.73 1010.65 1011.27 1011.73 1012.22 1012.42 1012.80 1013.16 1013.46
1012.22 1011.97 1012.05 1012.15 1012.07 1012.10 1011.92 1011.44 1010.72 1009.85 1009.63 1009.82 1009.29 1008.77 1007.65 1006.39 1007.19 1008.15 1008.99 1009.64 1010.12 1010.28 1010.47 1010.71 1010.72 1010.69 1010.55 1010.61 1010.41 1009.88 1009.62 1009.44 1009.26 1008.39 1008.00 1008.46 1009.19 1010.08 1010.86 1011.59 1011.97 1012.21 1012.51 1012.78
1012.04 1011.71 1012.05 1012.28 1012.26 1012.10 1011.86 1011.58 1011.13 1011.11 1010.66 1010.27 1009.44 1008.36 1007.93 1008.41 1008.36 1009.17 1010.49 1011.35 1011.69 1012.07 1012.05 1012.03 1011.96 1011.97 1011.80 1011.69 1011.62 1011.48 1010.99 1010.39 1010.12 1009.66 1008.90 1008.11 1008.66 1009.35 1010.04 1010.69 1011.12 1011.45 1011.91 1012.40
1012.26 1012.12 1012.24 1012.41 1012.38 1012.24 1012.11 1012.00 1012.17 1011.92 1011.78 1010.83 1010.50 1009.52 1008.95 1009.37 1009.63 1010.70 1011.69 1012.17 1012.74 1013.17 1013.31 1013.32 1013.25 1013.15 1013.01 1012.63 1012.53 1012.32 1011.96 1011.39 1010.65 1010.39 1010.26 1009.88 1008.48 1008.81 1008.97 1009.59 1010.33 1010.86 1011.17 1011.82
1012.59 1012.17 1012.44 1012.87 1012.87 1013.03 1012.86 1012.78 1012.71 1012.29 1011.96 1011.65 1010.50 1010.65 1008.42 1008.89 1010.49 1011.66 1012.42 1012.91 1013.34 1013.72 1014.07 1014.25 1014.23 1014.10 1013.80 1013.49 1013.14 1012.85 1012.43 1011.84 1011.41 1010.72 1010.04 1010.02 1009.84 1008.73 1008.44 1008.72 1009.49 1010.18 1010.72 1011.00
1013.15 1012.68 1012.84 1013.36 1013.28 1013.16 1013.26 1013.04 1012.51 1011.41 1011.78 1011.87 1010.24 1010.24 1009.72 1009.88 1011.48 1012.59 1013.18 1013.58 1014.00 1014.12 1014.47 1014.59 1014.71 1014.45 1014.16 1013.76 1013.33 1013.01 1012.64 1012.27 1011.60 1010.98 1010.43 1009.88 1009.41 1009.08 1008.47 1008.46 1008.84 1009.43 1010.07 1010.70
1013.54 1012.90 1013.56 1013.93 1013.81 1013.37 1013.88 1013.97 1012.98 1012.05 1012.23 1011.61 1010.47 1010.86 1010.52 1011.66 1012.76 1013.70 1014.20 1014.44 1014.51 1014.51 1014.50 1014.64 1014.63 1014.40 1014.10 1013.86 1013.52 1012.91 1012.64 1012.35 1011.74 1010.99 1010.30 1009.71 1009.08 1008.56 1008.13 1007.76 1007.89 1008.61 1009.44 1009.88
1015.18 1014.19 1014.23 1014.53 1014.92 1015.12 1014.81 1015.11 1015.25 1014.63 1013.63 1012.88 1011.47 1011.39 1011.54 1012.09 1013.32 1014.29 1014.88 1015.00 1014.95 1014.78 1014.62 1014.86 1014.83 1014.66 1014.21 1013.87 1013.46 1013.10 1012.51 1012.03 1011.68 1011.05 1010.11 1009.40 1008.85 1008.15 1007.39 1007.13 1007.13 1007.32 1008.03 1008.86
1017.40 1015.73 1014.94 1015.25 1015.72 1016.13 1015.35 1015.83 1016.90 1016.70 1016.04 1015.03 1013.02 1011.46 1012.08 1011.98 1013.49 1014.33 1014.65 1014.56 1014.62 1014.58 1014.44 1014.61 1014.65 1014.45 1014.12 1013.91 1013.32 1012.80 1012.21 1011.89 1011.62 1011.00 1009.93 1009.28 1008.82 1008.22 1007.36 1006.57 1006.28 1006.33 1006.77 1007.61
1019.39 1018.50 1016.54 1016.29 1016.44 1016.09 1016.62 1017.07 1017.47 1017.84 1017.36 1015.86 1013.69 1012.90 1012.77 1013.10 1013.33 1013.86 1014.38 1014.51 1014.21 1013.73 1013.79 1013.78 1013.69 1013.67 1013.57 1013.37 1012.95 1012.41 1012.06 1011.60 1011.05 1010.46 1009.75 1009.14 1008.82 1008.21 1007.22 1006.22 1005.69 1005.57 1005.84 1006.54
1020.77 1020.32 1018.16 1017.56 1017.02 1017.05 1017.35 1017.63 1018.23 1018.67 1019.22 1018.37 1016.93 1014.18 1013.83 1014.83 1015.20 1015.08 1014.80 1014.57 1014.88 1014.95 1014.71 1014.56 1014.32 1014.00 1013.70 1013.38 1012.65 1012.25 1012.03 1011.46 1010.78 1010.23 1009.80 1009.54 1009.03 1008.19 1007.17 1006.09 1005.40 1004.89 1005.24 1005.73
1022.17 1021.88 1020.35 1018.63 1018.11 1018.33 1018.72 1018.86 1019.23 1019.76 1019.83 1019.97 1020.12 1015.02 1015.48 1015.96 1015.83 1015.71 1015.41 1014.98 1014.72 1014.64 1014.50 1014.62 1014.29 1013.77 1013.35 1012.88 1012.74 1012.21 1011.64 1011.10 1010.40 1009.94 1009.78 1009.48 1008.78 1008.14 1007.21 1006.05 1005.10 1004.74 1004.65 1004.90
1023.55 1022.56 1021.60 1019.55 1019.63 1019.38 1019.40 1019.84 1020.40 1020.70 1020.93 1020.44 1020.70 1016.92 1016.42 1016.64 1016.06 1015.41 1014.95 1014.68 1014.72 1014.54 1014.51 1014.32 1013.89 1013.42 1012.95 1012.78 1012.35 1011.91 1011.30 1010.66 1010.26 1009.70 1009.18 1008.89 1008.55 1007.97 1007.01 1006.12 1005.17 1004.45 1004.15 1003.80
1024.57 1023.90 1023.05 1022.29 1021.29 1021.05 1020.59 1020.69 1020.94 1021.18 1021.02 1020.51 1019.62 1017.95 1017.52 1016.80 1015.94 1015.08 1014.78 1014.61 1014.62 1014.69 1014.61 1014.21 1013.63 1013.10 1012.88 1012.53 1012.04 1011.50 1010.85 1010.27 1009.95 1009.40 1008.54 1008.10 1007.96 1007.47 1007.22 1006.38 1004.95 1004.34 1003.57 1003.10
1024.49 1024.01 1023.47 1022.89 1022.24 1021.95 1021.38 1020.88 1020.68 1020.81 1020.72 1020.61 1018.73 1018.19 1017.17 1016.14 1015.75 1015.23 1014.90 1014.76 1014.69 1014.66 1014.41 1013.82 1013.43 1013.06 1012.61 1012.12 1011.59 1011.15 1010.62 1009.91 1009.40 1008.73 1008.00 1007.57 1007.33 1006.95 1006.70 1006.39 1005.21 1004.30 1003.42 1002.91
1024.37 1024.38 1024.16 1023.50 1022.79 1022.21 1021.09 1020.31 1019.95 1019.78 1019.63 1019.07 1018.16 1016.95 1016.96 1015.99 1015.53 1015.31 1015.33 1015.18 1015.05 1014.86 1014.61 1014.06 1013.47 1012.84 1012.20 1011.67 1011.21 1010.66 1010.14 1009.40 1008.91 1008.11 1007.39 1006.69 1006.44 1006.38 1005.92 1006.31 1005.73 1004.33 1003.74 1002.71
1024.80 1024.75 1024.73 1023.50 1022.98 1022.39 1020.81 1019.06 1018.88 1018.84 1018.98 1018.61 1017.92 1017.35 1016.65 1016.57 1016.59 1016.22 1016.00 1015.71 1015.18 1014.87 1014.56 1013.75 1013.04 1012.45 1011.78 1011.29 1010.87 1010.36 1009.57 1008.73 1008.11 1007.62 1006.81 1006.14 1005.62 1005.31 1005.06 1005.26 1005.31 1004.60 1004.12 1002.63
1024.66 1024.99 1025.30 1024.31 1023.76 1022.13 1019.44 1018.85 1018.78 1018.44 1018.44 1018.29 1017.80 1017.54 1017.65 1017.44 1017.01 1016.37 1015.85 1015.38 1014.77 1014.41 1013.82 1013.16 1012.59 1011.86 1011.20 1010.56 1010.12 1009.74 1009.03 1008.21 1007.63 1007.04 1006.39 1005.59 1005.10 1004.98 1004.72 1004.76 1004.79 1004.40 1004.15 1002.78
1024.37 1025.28 1025.50 1025.11 1024.12 1021.76 1019.56 1018.94 1018.92 1018.40 1017.58 1018.15 1017.97 1017.83 1017.62 1017.14 1016.65 1015.81 1015.50 1015.05 1014.74 1014.23 1013.49 1012.68 1012.15 1011.50 1010.71 1010.07 1009.58 1009.11 1008.52 1007.78 1007.26 1006.57 1005.79 1005.11 1004.95 1004.69 1004.55 1004.03 1003.96 1003.88 1003.83 1002.93
1023.52 1024.31 1025.07 1024.87 1024.79 1022.54 1019.02 1018.64 1018.50 1018.55 1017.63 1017.96 1018.12 1017.72 1017.44 1017.24 1016.72 1015.65 1015.27 1014.76 1014.24 1013.69 1012.89 1012.27 1011.65 1010.87 1010.19 1009.50 1009.04 1008.48 1007.87 1007.47 1006.81 1006.09 1005.32 1005.06 1004.64 1004.23 1003.97 1003.98 1003.25 1002.94 1002.92 1002.52
1023.36 1023.72 1023.92 1023.94 1023.52 1020.99 1018.89 1018.66 1018.47 1018.82 1018.15 1017.71 1017.66 1017.34 1017.33 1017.20 1016.68 1015.68 1015.05 1014.39 1013.68 1012.77 1012.02 1011.36 1010.94 1010.20 1009.41 1008.78 1008.38 1007.76 1007.25 1006.69 1006.18 1005.58 1004.93 1004.61 1004.42 1004.08 1003.06 1002.50 1002.17 1001.85 1002.12 1002.05
1023.40 1023.45 1023.25 1022.86 1022.55 1020.57 1018.49 1018.29 1019.23 1018.38 1017.37 1017.47 1017.27 1017.46 1017.18 1016.70 1015.87 1015.00 1014.45 1013.85 1013.12 1012.30 1011.37 1010.50 1009.99 1009.11 1008.42 1008.24 1007.79 1006.98 1006.46 1006.15 1005.65 1004.91 1004.45 1004.06 1003.56 1003.14 1002.17 1001.52 1001.00 1001.01 1000.87 1001.57
1022.60 1022.02 1022.07 1022.13 1020.29 1018.80 1018.62 1018.46 1018.01 1017.86 1017.60 1017.64 1017.58 1017.08 1016.64 1015.88 1015.30 1014.63 1013.85 1013.03 1012.10 1011.41 1010.73 1009.95 1009.06 1008.31 1007.48 1007.28 1007.00 1006.40 1005.73 1005.36 1004.66 1004.08 1003.72 1003.36 1002.71 1001.94 1000.80 999.64 999.36 999.46 1000.59 1001.24
1021.45 1021.23 1021.13 1020.99 1019.17 1019.09 1018.70 1018.11 1017.65 1017.67 1017.62 1017.46 1017.24 1016.75 1016.31 1015.78 1014.94 1013.89 1013.05 1012.16 1011.22 1010.26 1009.56 1008.89 1008.12 1007.54 1006.75 1006.44 1006.22 1005.95 1005.37 1004.63 1004.12 1003.31 1002.94 1002.57 1002.10 1001.24 1000.17 998.68 997.95 999.02 999.97 1000.68
1021.89 1021.48 1020.36 1019.72 1019.18 1018.58 1018.34 1018.08 1018.00 1017.91 1017.73 1017.35 1016.86 1016.49 1015.85 1015.17 1014.01 1013.42 1012.27 1011.46 1010.56 1009.68 1008.91 1008.28 1007.60 1006.86 1006.21 1005.95 1005.52 1005.40 1005.07 1004.45 1003.55 1002.73 1002.25 1001.80 1001.49 1000.58 999.54 998.52 998.21 998.61 999.32 999.85
1020.77 1020.07 1019.74 1018.95 1018.63 1018.42 1018.28 1018.17 1018.23 1017.96 1017.57 1017.18 1016.54 1015.45 1015.31 1014.92 1013.67 1012.79 1011.76 1010.98 1010.16 1009.00 1008.24 1007.45 1006.80 1006.16 1005.36 1005.03 1004.71 1004.64 1004.51 1003.91 1002.95 1002.17 1001.80 1001.26 1000.86 1000.35 999.51 999.18 998.53 998.48 999.09 999.87
Wind_Speed
3 3 6 9 7 8 9 11 14 14 13 12 9 16 21 19 12 9 7 16 19 19 18 22 21 24 24 25 24 23 23 11 5 7 7 4 5 4 4 5 8 8 7 8
5 7 5 6 5 5 8 13 14 12 11 14 11 18 22 24 7 21 20 20 20 21 21 20 20 21 20 20 22 23 21 19 18 5 7 8 7 5 5 6 7 9 11 10
5 9 3 4 6 12 11 13 11 13 15 14 10 8 2 15 22 22 20 17 19 20 19 17 18 19 17 17 18 20 20 18 16 18 7 3 2 3 4 7 8 8 9 10
8 5 2 7 10 10 9 9 11 12 11 4 11 7 9 10 17 17 12 12 14 16 15 16 18 18 19 12 10 12 15 16 16 17 13 12 10 10 8 9 8 6 9 11
5 8 6 8 8 10 6 9 13 15 13 11 10 4 7 18 15 12 11 14 13 13 15 18 19 16 14 14 8 10 14 9 10 13 16 10 12 10 6 7 9 11 9 11
12 9 4 3 9 8 9 11 18 17 8 5 9 11 4 5 13 11 11 12 14 11 11 11 11 12 13 13 8 7 12 9 9 9 10 16 15 11 10 7 8 8 8 9
11 1 6 7 9 2 9 11 5 2 2 6 15 6 4 17 15 16 13 14 16 16 10 12 14 14 13 13 14 8 9 10 14 12 9 11 16 15 14 14 11 10 9 9
6 2 5 5 4 6 12 5 4 6 5 9 19 4 7 17 17 13 14 11 9 10 7 9 9 12 14 15 15 14 9 9 14 16 10 8 14 11 9 13 10 9 11 11
7 3 6 8 4 4 8 4 4 6 10 11 7 7 19 15 17 16 19 15 12 12 8 9 8 8 9 13 12 16 12 11 12 17 16 9 13 16 11 12 14 9 12 12
4 8 8 6 3 6 5 3 3 3 5 6 5 8 5 24 21 24 21 16 16 15 15 17 19 17 15 17 12 10 8 11 14 15 13 13 14 15 16 12 13 13 10 14
5 3 2 12 3 8 6 7 7 5 7 5 6 7 7 15 18 23 22 17 13 8 9 11 12 10 13 17 13 9 14 13 10 10 12 12 16 16 17 12 8 12 14 12
6 4 5 9 9 7 4 7 8 1 5 4 3 20 20 13 21 18 18 14 9 9 10 11 11 12 12 11 14 15 14 16 11 6 8 13 15 16 18 12 9 7 13 13
7 2 5 4 4 4 2 3 3 8 5 14 12 14 15 22 22 20 19 9 10 12 13 14 15 13 7 11 14 16 15 14 12 8 7 8 13 14 16 15 13 12 12 14
2 4 7 5 11 14 15 13 14 15 10 17 16 27 20 22 25 20 12 11 11 12 15 17 14 11 10 12 13 15 13 10 13 16 12 6 7 9 14 18 13 15 12 15
3 6 9 11 15 16 18 19 18 17 18 19 24 25 24 18 19 15 14 13 14 18 21 18 12 15 15 13 10 12 14 13 13 16 13 8 6 7 13 14 17 16 14 12
2 4 9 12 17 16 18 18 19 19 20 21 20 23 19 14 16 16 13 14 15 18 17 20 18 19 18 15 12 13 16 14 15 16 16 13 7 6 7 11 15 14 19 11
6 3 5 5 8 17 15 4 6 13 16 14 17 18 15 14 16 17 18 18 18 14 20 16 18 18 16 17 16 16 17 16 13 16 17 17 10 7 7 6 9 12 19 10
7 6 3 8 12 4 4 14 14 17 18 17 18 16 12 13 15 17 19 16 16 15 16 18 17 16 18 18 15 16 16 15 12 15 17 19 7 8 11 8 8 10 14 15
11 7 5 3 5 18 19 5 14 18 15 11 9 11 17 19 16 18 16 13 17 20 18 16 16 20 19 19 16 15 18 14 13 18 19 11 12 15 13 12 9 8 11 17
8 10 8 5 6 7 4 18 11 7 16 6 16 21 20 18 15 16 20 20 20 21 17 16 18 19 18 18 15 17 15 15 16 18 11 13 14 17 17 14 10 9 11 14
4 6 11 11 11 12 10 7 13 9 13 22 22 16 18 15 12 20 20 23 20 19 19 19 19 17 19 16 15 16 18 15 13 16 13 13 14 18 19 16 11 9 10 10
3 3 3 6 8 14 2 17 14 18 19 20 14 13 17 19 20 20 19 19 20 21 23 24 19 18 19 16 15 16 16 16 16 14 14 14 16 16 16 16 9 9 8 10
5 8 4 6 7 14 18 18 17 18 13 14 17 19 18 20 21 21 20 22 22 23 22 21 19 18 22 15 13 14 17 16 17 13 15 14 17 17 18 16 9 8 11 10
7 5 8 11 7 12 17 21 15 15 14 16 18 20 19 22 23 26 23 23 23 22 21 20 19 20 20 15 15 12 16 16 17 17 15 15 16 18 18 12 8 10 10 11
9 10 9 13 17 19 13 14 13 17 17 19 19 20 23 25 26 25 23 23 22 22 20 19 19 17 21 17 16 14 16 16 18 16 13 13 12 14 10 6 6 9 9 8
9 10 8 11 11 10 13 13 15 17 18 21 24 23 21 22 25 25 22 20 22 22 21 19 21 21 18 19 16 17 17 19 15 15 10 10 10 10 7 7 1 8 12 14
Wind_Direction
136 300 267 8 14 336 311 293 289 294 300 305 320 309 301 296 287 283 312 40 58 52 38 33 28 18 18 20 13 12 5 325 185 192 184 166 180 186 184 190 197 187 179 186
246 235 57 346 315 298 290 285 286 285 340 343 305 292 286 278 44 74 65 55 40 34 30 25 22 20 16 14 10 2 0 356 350 289 195 198 173 178 176 182 200 192 187 187
290 312 69 335 316 300 297 296 315 319 323 290 299 271 83 61 79 72 62 57 47 33 22 20 19 18 8 12 8 356 347 346 346 343 303 187 177 155 152 190 208 203 186 187
274 85 356 315 306 322 313 355 336 313 315 295 8 288 300 112 87 77 77 66 54 35 24 19 14 8 360 352 3 353 338 336 338 338 342 306 216 208 198 191 200 195 189 187
279 344 5 309 321 344 279 330 297 279 270 286 260 244 277 132 103 88 58 49 39 39 31 16 5 358 350 349 353 345 328 325 326 327 327 319 296 239 210 193 185 195 201 193
257 271 280 2 316 267 294 297 296 271 246 257 291 192 301 90 91 65 40 29 25 32 36 21 358 347 344 328 331 335 314 327 315 305 311 315 303 275 231 210 198 191 195 204
309 47 90 27 331 318 357 340 304 309 146 220 47 353 112 98 75 42 23 19 14 3 20 12 359 348 346 343 330 324 331 323 315 305 303 302 305 288 251 226 205 180 196 201
338 216 166 68 41 324 296 261 287 300 324 322 333 234 130 105 52 42 26 6 357 359 15 8 2 350 340 334 332 326 324 318 323 317 301 306 305 295 272 236 224 200 195 201
340 268 360 11 32 344 9 348 347 295 274 269 227 243 133 51 29 21 359 355 353 350 4 357 346 339 326 330 322 315 320 330 326 322 322 324 320 310 290 255 230 215 197 197
41 296 295 121 312 251 228 73 11 305 279 273 291 314 273 6 2 352 346 340 341 350 357 354 350 337 342 323 321 317 320 319 320 317 321 330 318 306 300 289 234 223 218 197
335 236 296 334 275 351 323 301 291 258 243 266 320 254 53 3 355 339 331 338 329 346 342 338 324 328 331 317 308 339 329 310 308 310 323 325 321 315 302 291 259 223 221 205
45 314 289 273 313 28 321 295 276 226 280 329 269 271 313 336 333 315 308 316 330 339 342 329 322 315 313 317 342 324 322 310 301 297 323 318 315 313 310 296 291 270 219 219
11 262 304 149 119 182 37 15 297 248 260 258 262 268 330 314 308 303 304 323 341 347 338 322 307 313 314 334 333 318 312 307 320 297 291 290 304 313 314 309 297 277 254 225
175 262 253 267 293 306 298 300 293 287 279 288 265 288 299 300 294 295 332 334 343 341 330 318 311 311 333 327 316 309 312 320 307 312 293 274 302 313 313 309 306 298 274 229
234 269 276 285 300 302 293 289 282 274 276 269 289 278 282 292 316 320 320 342 342 334 317 313 326 318 320 314 314 317 313 308 308 304 299 286 283 311 310 308 309 306 277 270
211 275 311 288 280 275 288 286 284 275 274 272 287 294 305 310 307 315 343 334 328 316 329 323 327 321 318 314 317 313 304 305 305 300 302 293 262 268 305 301 310 307 292 268
287 279 321 261 319 311 286 280 342 311 303 313 310 313 322 339 349 336 330 324 312 327 306 315 318 309 311 314 314 308 305 297 291 299 300 300 288 272 284 274 296 304 295 260
254 279 286 288 309 253 246 325 329 324 316 310 307 323 349 324 313 312 309 303 303 313 316 314 306 309 308 305 306 307 298 303 296 300 300 290 307 312 307 277 259 286 288 274
215 240 280 271 279 284 275 277 333 307 307 308 311 321 313 310 315 301 305 313 315 311 308 300 313 307 305 304 305 313 301 296 308 295 291 311 315 306 301 284 232 245 269 282
208 207 222 266 281 270 281 325 327 338 295 341 331 317 316 322 305 298 311 305 300 296 292 309 303 302 300 301 303 297 305 303 292 299 314 307 310 310 300 283 266 221 247 266
225 236 235 249 254 263 270 7 337 303 294 318 307 301 312 300 288 299 301 298 293 288 309 305 302 297 299 302 300 303 298 297 306 297 303 303 303 300 291 283 255 212 228 251
221 246 240 254 262 268 16 328 321 298 308 304 325 324 306 297 295 297 298 298 303 305 304 300 295 297 297 296 295 293 300 303 300 295 299 294 295 295 286 280 237 210 200 236
246 213 212 217 240 290 310 300 304 300 319 326 318 312 301 300 299 302 301 296 293 292 294 294 286 298 293 294 288 297 298 303 292 301 300 294 294 299 291 287 230 209 195 211
273 283 273 301 257 290 299 293 297 317 318 321 311 301 310 303 301 297 296 298 292 292 290 287 299 295 293 297 302 294 304 304 306 299 302 292 297 295 292 281 200 187 190 201
259 295 260 266 281 283 288 313 344 332 320 310 304 304 301 300 300 301 302 304 304 302 301 301 297 298 293 303 300 310 308 314 298 298 297 288 290 292 306 286 168 180 183 212
237 245 244 271 304 309 321 333 331 314 315 311 308 311 314 310 308 309 304 303 302 297 298 296 295 289 290 293 295 307 301 294 294 300 284 281 289 290 295 302 131 125 157 235